| time (UTC) | temp C | wind direction | speed KPH | gust KPH | rain 1hr cm | rain 24hr cm | rain mn cm | humidity % | barometer mb |
| 20260508111516 | 15 | 113 | 1.6 | 4.8 | 0.00 | 0.05 | 0.03 | 69 | 1016.4 |
| 20260508110516 | 15 | 113 | 1.6 | 6.4 | 0.00 | 0.05 | 0.03 | 72 | 1016.4 |
| 20260508105516 | 14 | 68 | 1.6 | 3.2 | 0.00 | 0.05 | 0.03 | 75 | 1016.4 |
| 20260508104517 | 13 | 0.0 | 3.2 | 0.00 | 0.05 | 0.03 | 78 | 1016.5 | |
| 20260508103516 | 13 | 0.0 | 1.6 | 0.00 | 0.05 | 0.03 | 77 | 1016.5 | |
| 20260508102517 | 13 | 0.0 | 1.6 | 0.00 | 0.05 | 0.03 | 77 | 1016.6 | |
| 20260508101516 | 13 | 0.0 | 3.2 | 0.00 | 0.05 | 0.03 | 77 | 1016.6 | |
| 20260508100517 | 13 | 0.0 | 3.2 | 0.00 | 0.05 | 0.03 | 76 | 1016.6 | |
| 20260508095516 | 13 | 0.0 | 1.6 | 0.00 | 0.05 | 0.03 | 77 | 1016.6 | |
| 20260508094516 | 13 | 0.0 | 4.8 | 0.00 | 0.05 | 0.03 | 78 | 1016.6 | |
| 20260508093517 | 13 | 0.0 | 1.6 | 0.00 | 0.05 | 0.03 | 81 | 1016.6 | |
| 20260508092516 | 12 | 0.0 | 3.2 | 0.00 | 0.05 | 0.03 | 81 | 1016.6 | |
| 20260508091516 | 12 | 0.0 | 1.6 | 0.00 | 0.05 | 0.03 | 83 | 1016.7 | |
| 20260508090516 | 11 | 135 | 1.6 | 3.2 | 0.03 | 0.05 | 0.03 | 84 | 1016.7 |
| 20260508085516 | 11 | 135 | 1.6 | 3.2 | 0.03 | 0.05 | 0.03 | 86 | 1016.7 |
| 20260508084516 | 11 | 0.0 | 4.8 | 0.03 | 0.05 | 0.03 | 86 | 1016.6 | |
| 20260508083556 | 10 | 0.0 | 3.2 | 0.03 | 0.05 | 0.03 | 86 | 1016.5 | |
| 20260508082516 | 10 | 0.0 | 3.2 | 0.03 | 0.05 | 0.03 | 87 | 1016.5 | |
| 20260508081516 | 10 | 0.0 | 3.2 | 0.03 | 0.05 | 0.03 | 87 | 1016.5 | |
| 20260508080516 | 10 | 0.0 | 1.6 | 0.00 | 0.03 | 0.00 | 86 | 1016.5 | |
| 20260508075516 | 10 | 0.0 | 1.6 | 0.00 | 0.03 | 0.00 | 86 | 1016.4 | |
| 20260508074516 | 9 | 0.0 | 3.2 | 0.00 | 0.03 | 0.00 | 86 | 1016.4 | |
| 20260508073516 | 9 | 0.0 | 3.2 | 0.00 | 0.03 | 0.00 | 87 | 1016.3 | |
| 20260508072516 | 9 | 113 | 1.6 | 3.2 | 0.00 | 0.03 | 0.00 | 87 | 1016.3 |
| 20260508071516 | 9 | 0.0 | 3.2 | 0.00 | 0.03 | 0.00 | 88 | 1016.2 | |
| 20260508070516 | 9 | 0.0 | 3.2 | 0.00 | 0.03 | 0.00 | 89 | 1016.2 | |
| 20260508065516 | 8 | 0.0 | 1.6 | 0.00 | 0.03 | 0.00 | 89 | 1016.1 | |
| 20260508064516 | 8 | 135 | 1.6 | 4.8 | 0.00 | 0.03 | 0.00 | 90 | 1016.0 |
| 20260508063556 | 8 | 0.0 | 1.6 | 0.00 | 0.03 | 0.00 | 91 | 1015.9 | |
| 20260508062536 | 8 | 0.0 | 4.8 | 0.00 | 0.03 | 0.00 | 92 | 1015.8 | |
| 20260508061516 | 8 | 0.0 | 3.2 | 0.00 | 0.03 | 0.00 | 92 | 1015.8 | |
| 20260508060516 | 7 | 0.0 | 0.0 | 0.00 | 0.03 | 0.00 | 93 | 1015.6 | |
| 20260508055516 | 7 | 0.0 | 1.6 | 0.00 | 0.03 | 0.00 | 93 | 1015.5 | |
| 20260508054516 | 7 | 0.0 | 1.6 | 0.00 | 0.03 | 0.00 | 93 | 1015.6 | |
| 20260508053536 | 7 | 0.0 | 1.6 | 0.00 | 0.03 | 0.00 | 93 | 1015.5 | |
| 20260508052516 | 7 | 0.0 | 1.6 | 0.00 | 0.03 | 0.00 | 93 | 1015.4 | |
| 20260508051516 | 7 | 0.0 | 0.0 | 0.00 | 0.03 | 0.00 | 93 | 1015.4 | |
| 20260508050516 | 6 | 0.0 | 0.0 | 0.00 | 0.03 | 0.00 | 93 | 1015.3 | |
| 20260508045516 | 7 | 0.0 | 1.6 | 0.00 | 0.03 | 0.00 | 93 | 1015.3 | |
| 20260508044516 | 6 | 0.0 | 3.2 | 0.00 | 0.03 | 0.00 | 93 | 1015.2 | |
| 20260508043556 | 6 | 0.0 | 1.6 | 0.00 | 0.03 | 0.00 | 93 | 1015.2 | |
| 20260508042516 | 6 | 0.0 | 1.6 | 0.00 | 0.03 | 0.00 | 93 | 1015.2 | |
| 20260508041516 | 6 | 0.0 | 1.6 | 0.00 | 0.03 | 0.00 | 94 | 1015.2 | |
| 20260508040516 | 6 | 0.0 | 1.6 | 0.00 | 0.03 | 0.00 | 94 | 1015.3 | |
| 20260508035516 | 6 | 0.0 | 0.0 | 0.00 | 0.03 | 0.00 | 93 | 1015.3 | |
| 20260508034516 | 6 | 0.0 | 0.0 | 0.00 | 0.03 | 0.00 | 93 | 1015.3 | |
| 20260508033516 | 6 | 0.0 | 0.0 | 0.00 | 0.03 | 0.00 | 93 | 1015.3 | |
| 20260508032516 | 6 | 0.0 | 0.0 | 0.00 | 0.03 | 0.00 | 93 | 1015.3 | |
| 20260508031516 | 6 | 0.0 | 0.0 | 0.00 | 0.03 | 0.00 | 92 | 1015.4 | |
| 20260508030516 | 6 | 0.0 | 0.0 | 0.00 | 0.03 | 0.00 | 92 | 1015.4 | |
| 20260508025516 | 6 | 0.0 | 0.0 | 0.00 | 0.03 | 0.00 | 92 | 1015.2 | |
| 20260508024516 | 6 | 0.0 | 0.0 | 0.00 | 0.03 | 0.00 | 92 | 1015.2 | |
| 20260508023516 | 6 | 0.0 | 1.6 | 0.00 | 0.03 | 0.00 | 92 | 1015.2 | |
| 20260508022516 | 6 | 0.0 | 0.0 | 0.00 | 0.03 | 0.00 | 91 | 1015.2 | |
| 20260508021517 | 6 | 0.0 | 0.0 | 0.00 | 0.03 | 0.00 | 91 | 1015.2 | |
| 20260508020536 | 6 | 0.0 | 0.0 | 0.00 | 0.03 | 0.00 | 91 | 1015.1 | |
| 20260508015516 | 7 | 0.0 | 0.0 | 0.00 | 0.03 | 0.00 | 91 | 1015.1 | |
| 20260508014536 | 7 | 0.0 | 1.6 | 0.00 | 0.03 | 0.00 | 91 | 1015.1 | |
| 20260508013516 | 7 | 0.0 | 1.6 | 0.00 | 0.03 | 0.00 | 90 | 1015.1 | |
| 20260508012516 | 7 | 0.0 | 0.0 | 0.00 | 0.03 | 0.00 | 90 | 1014.8 | |
| 20260508011515 | 7 | 0.0 | 0.0 | 0.00 | 0.03 | 0.00 | 90 | 1014.8 | |
| 20260508010516 | 7 | 0.0 | 0.0 | 0.00 | 0.03 | 0.00 | 90 | 1015.1 | |
| 20260508005516 | 7 | 0.0 | 1.6 | 0.00 | 0.03 | 0.00 | 91 | 1015.0 | |
| 20260508004516 | 7 | 0.0 | 4.8 | 0.00 | 0.03 | 0.00 | 91 | 1015.0 | |
| 20260508003516 | 7 | 0.0 | 1.6 | 0.00 | 0.03 | 0.00 | 91 | 1015.0 | |
| 20260508002516 | 7 | 0.0 | 1.6 | 0.00 | 0.03 | 0.00 | 91 | 1015.0 | |
| 20260508001536 | 7 | 0.0 | 0.0 | 0.00 | 0.03 | 0.00 | 91 | 1015.1 | |
| 20260508000515 | 8 | 0.0 | 1.6 | 0.00 | 0.03 | 0.00 | 91 | 1015.1 | |
| 20260507235515 | 8 | 0.0 | 0.0 | 0.00 | 0.03 | 0.00 | 90 | 1015.2 | |
| 20260507234516 | 8 | 0.0 | 0.0 | 0.00 | 0.03 | 0.00 | 90 | 1015.2 | |
| 20260507233516 | 8 | 0.0 | 0.0 | 0.00 | 0.03 | 0.00 | 90 | 1015.2 | |
| 20260507232515 | 8 | 0.0 | 1.6 | 0.00 | 0.03 | 0.00 | 90 | 1015.2 | |
| 20260507231516 | 8 | 0.0 | 1.6 | 0.00 | 0.03 | 0.00 | 91 | 1015.2 | |
| 20260507230516 | 8 | 0.0 | 1.6 | 0.00 | 0.03 | 0.00 | 91 | 1015.1 | |
| 20260507225515 | 8 | 0.0 | 0.0 | 0.00 | 0.03 | 0.03 | 91 | 1015.2 | |
| 20260507224515 | 8 | 0.0 | 1.6 | 0.00 | 0.03 | 0.03 | 91 | 1015.1 | |
| 20260507223515 | 8 | 0.0 | 0.0 | 0.00 | 0.03 | 0.03 | 91 | 1015.0 | |
| 20260507222535 | 8 | 0.0 | 0.0 | 0.00 | 0.03 | 0.03 | 90 | 1015.0 | |
| 20260507221535 | 8 | 0.0 | 1.6 | 0.00 | 0.03 | 0.03 | 90 | 1014.9 | |
| 20260507220515 | 8 | 0.0 | 1.6 | 0.00 | 0.03 | 0.03 | 89 | 1014.8 | |
| 20260507215515 | 8 | 0.0 | 0.0 | 0.00 | 0.03 | 0.03 | 89 | 1014.8 | |
| 20260507214515 | 8 | 0.0 | 0.0 | 0.00 | 0.03 | 0.03 | 88 | 1014.8 | |
| 20260507213515 | 9 | 0.0 | 0.0 | 0.00 | 0.03 | 0.03 | 87 | 1014.8 | |
| 20260507212515 | 9 | 0.0 | 0.0 | 0.00 | 0.03 | 0.03 | 86 | 1014.8 | |
| 20260507211515 | 9 | 0.0 | 1.6 | 0.00 | 0.03 | 0.03 | 86 | 1014.8 | |
| 20260507210515 | 10 | 0.0 | 1.6 | 0.00 | 0.03 | 0.03 | 85 | 1014.7 | |
| 20260507205515 | 10 | 0.0 | 1.6 | 0.00 | 0.03 | 0.03 | 85 | 1014.5 | |
| 20260507204515 | 10 | 0.0 | 1.6 | 0.00 | 0.03 | 0.03 | 85 | 1014.5 | |
| 20260507203515 | 10 | 0.0 | 1.6 | 0.00 | 0.03 | 0.03 | 85 | 1014.5 | |
| 20260507202515 | 11 | 0.0 | 0.0 | 0.00 | 0.03 | 0.03 | 83 | 1014.3 | |
| 20260507201535 | 11 | 0.0 | 0.0 | 0.00 | 0.03 | 0.03 | 82 | 1014.3 | |
| 20260507200515 | 11 | 0.0 | 1.6 | 0.00 | 0.03 | 0.03 | 82 | 1014.2 | |
| 20260507195515 | 11 | 0.0 | 1.6 | 0.00 | 0.03 | 0.03 | 81 | 1014.1 | |
| 20260507194515 | 11 | 0.0 | 1.6 | 0.00 | 0.03 | 0.03 | 80 | 1014.1 | |
| 20260507193517 | 12 | 0.0 | 1.6 | 0.00 | 0.03 | 0.03 | 80 | 1014.0 | |
| 20260507192517 | 12 | 113 | 1.6 | 3.2 | 0.00 | 0.03 | 0.03 | 80 | 1014.0 |
| 20260507191517 | 12 | 0.0 | 3.2 | 0.00 | 0.03 | 0.03 | 81 | 1014.0 | |
| 20260507190517 | 12 | 0.0 | 0.0 | 0.00 | 0.03 | 0.03 | 79 | 1013.9 | |
| 20260507185537 | 13 | 0.0 | 1.6 | 0.00 | 0.03 | 0.03 | 78 | 1013.9 | |
| 20260507184515 | 13 | 0.0 | 0.0 | 0.03 | 0.03 | 0.03 | 77 | 1013.9 | |
| 20260507183557 | 12 | 0.0 | 0.0 | 0.03 | 0.03 | 0.03 | 82 | 1013.9 | |
| 20260507182557 | 12 | 0.0 | 0.0 | 0.03 | 0.03 | 0.03 | 80 | 1013.9 | |
| 20260507181517 | 12 | 0.0 | 0.0 | 0.03 | 0.03 | 0.03 | 79 | 1013.8 | |
| 20260507180517 | 12 | 0.0 | 0.0 | 0.03 | 0.03 | 0.03 | 77 | 1013.7 | |
| 20260507175517 | 12 | 203 | 1.6 | 3.2 | 0.03 | 0.03 | 0.03 | 76 | 1013.6 |
| 20260507174517 | 13 | 0.0 | 1.6 | 0.00 | 0.00 | 0.00 | 72 | 1013.7 | |
| 20260507173517 | 13 | 0.0 | 3.2 | 0.00 | 0.00 | 0.00 | 71 | 1013.7 | |
| 20260507172517 | 13 | 0.0 | 3.2 | 0.00 | 0.00 | 0.00 | 68 | 1013.6 | |
| 20260507171517 | 13 | 203 | 1.6 | 4.8 | 0.00 | 0.00 | 0.00 | 65 | 1013.6 |
| 20260507170517 | 13 | 203 | 1.6 | 6.4 | 0.00 | 0.00 | 0.00 | 64 | 1013.6 |
| 20260507165537 | 14 | 225 | 1.6 | 6.4 | 0.00 | 0.00 | 0.00 | 64 | 1013.6 |
| 20260507164537 | 14 | 203 | 3.2 | 9.7 | 0.00 | 0.00 | 0.00 | 63 | 1013.7 |
| 20260507163517 | 14 | 135 | 3.2 | 9.7 | 0.00 | 0.00 | 0.00 | 62 | 1013.7 |
| 20260507162517 | 14 | 135 | 4.8 | 12.9 | 0.00 | 0.00 | 0.00 | 61 | 1013.7 |
| 20260507161517 | 14 | 158 | 3.2 | 8.0 | 0.00 | 0.00 | 0.00 | 62 | 1013.7 |
| 20260507160537 | 14 | 113 | 3.2 | 9.7 | 0.00 | 0.00 | 0.00 | 61 | 1013.6 |
| 20260507155517 | 14 | 113 | 3.2 | 9.7 | 0.00 | 0.00 | 0.00 | 60 | 1013.6 |
| 20260507154537 | 15 | 203 | 3.2 | 9.7 | 0.00 | 0.00 | 0.00 | 60 | 1013.7 |
| 20260507153517 | 15 | 158 | 3.2 | 11.3 | 0.00 | 0.00 | 0.00 | 58 | 1013.7 |
| 20260507152617 | 15 | 135 | 4.8 | 14.5 | 0.00 | 0.00 | 0.00 | 57 | 1013.7 |
| 20260507151517 | 15 | 135 | 4.8 | 14.5 | 0.00 | 0.00 | 0.00 | 57 | 1013.8 |
| 20260507150517 | 15 | 113 | 3.2 | 11.3 | 0.00 | 0.00 | 0.00 | 60 | 1013.8 |
| 20260507145517 | 14 | 135 | 3.2 | 11.3 | 0.00 | 0.00 | 0.00 | 62 | 1013.8 |
| 20260507144517 | 14 | 135 | 3.2 | 11.3 | 0.00 | 0.00 | 0.00 | 61 | 1014.1 |
| 20260507143537 | 14 | 135 | 3.2 | 9.7 | 0.00 | 0.00 | 0.00 | 61 | 1014.1 |
| 20260507142537 | 14 | 225 | 3.2 | 9.7 | 0.00 | 0.00 | 0.00 | 59 | 1014.2 |
| 20260507141517 | 14 | 135 | 4.8 | 16.1 | 0.00 | 0.00 | 0.00 | 58 | 1014.3 |
| 20260507140516 | 15 | 135 | 4.8 | 12.9 | 0.00 | 0.00 | 0.00 | 58 | 1014.3 |
| 20260507135517 | 15 | 135 | 4.8 | 12.9 | 0.00 | 0.00 | 0.00 | 60 | 1014.3 |
| 20260507134516 | 15 | 135 | 8.0 | 17.7 | 0.00 | 0.00 | 0.00 | 59 | 1014.3 |
| 20260507133517 | 15 | 113 | 3.2 | 9.7 | 0.00 | 0.00 | 0.00 | 60 | 1014.4 |
| 20260507132516 | 15 | 113 | 6.4 | 16.1 | 0.00 | 0.00 | 0.00 | 59 | 1014.4 |
| 20260507131516 | 15 | 203 | 6.4 | 16.1 | 0.00 | 0.00 | 0.00 | 63 | 1014.5 |
| 20260507130517 | 14 | 113 | 4.8 | 17.7 | 0.00 | 0.00 | 0.00 | 65 | 1014.7 |
| 20260507125516 | 14 | 135 | 4.8 | 11.3 | 0.00 | 0.00 | 0.00 | 64 | 1014.8 |
| 20260507124516 | 14 | 113 | 6.4 | 22.5 | 0.00 | 0.00 | 0.00 | 64 | 1014.7 |
| 20260507123516 | 14 | 135 | 4.8 | 11.3 | 0.00 | 0.00 | 0.00 | 65 | 1014.7 |
| 20260507122517 | 13 | 135 | 6.4 | 14.5 | 0.00 | 0.00 | 0.00 | 64 | 1014.8 |
| 20260507121517 | 13 | 113 | 4.8 | 12.9 | 0.00 | 0.00 | 0.00 | 64 | 1014.8 |
| 20260507120517 | 13 | 180 | 4.8 | 14.5 | 0.00 | 0.00 | 0.00 | 65 | 1014.8 |
| 20260507115517 | 13 | 203 | 6.4 | 17.7 | 0.00 | 0.00 | 0.00 | 68 | 1014.9 |
| 20260507114516 | 13 | 113 | 4.8 | 12.9 | 0.00 | 0.00 | 0.00 | 68 | 1014.9 |
| 20260507113536 | 13 | 203 | 6.4 | 14.5 | 0.00 | 0.00 | 0.00 | 68 | 1014.9 |
| 20260507112516 | 12 | 113 | 3.2 | 9.7 | 0.00 | 0.00 | 0.00 | 70 | 1015.1 |